This is the latest recevied weather packets stored in our database for station/object NI4CE-10. If no packets are shown the sender has not sent any weather packets the latest 10 day(s).
| Time | Temp. | Humidity | Pressure | Rain* | Wind** | Luminosity | Snow |
|---|---|---|---|---|---|---|---|
| 1777993034 | 26.67° C | 100% | 1018.7 hPa | 0 mm | - | - | - |
| 1777992948 | 26.67° C | 100% | 1018.7 hPa | 0 mm | - | - | - |
| 1777992699 | 27.78° C | 100% | 1018.6 hPa | 0 mm | - | - | - |
| 1777992648 | 27.78° C | 100% | 1018.6 hPa | 0 mm | - | - | - |
| 1777992412 | 26.67° C | 100% | 1018.5 hPa | 0 mm | - | - | - |
| 1777992348 | 26.67° C | 100% | 1018.5 hPa | 0 mm | - | - | - |
| 1777992048 | 27.22° C | 100% | 1018.5 hPa | 0 mm | - | - | - |
| 1777991992 | 27.78° C | 100% | 1018.4 hPa | 0 mm | - | - | - |
| 1777991893 | 27.78° C | 100% | 1018.4 hPa | 0 mm | - | - | - |
| 1777991748 | 27.78° C | 100% | 1018.4 hPa | 0 mm | - | - | - |
| 1777991618 | 26.67° C | 100% | 1018.4 hPa | 0 mm | - | - | - |
| 1777991574 | 26.67° C | 100% | 1018.4 hPa | 0 mm | - | - | - |
| 1777991448 | 26.67° C | 100% | 1018.4 hPa | 0 mm | - | - | - |
| 1777991328 | 26.67° C | 100% | 1018.1 hPa | 0 mm | - | - | - |
| 1777991293 | 27.22° C | 100% | 1018.3 hPa | 0 mm | - | - | - |
| 1777991148 | 27.22° C | 100% | 1018.3 hPa | 0 mm | - | - | - |
| 1777990848 | 27.22° C | 100% | 1018.2 hPa | 0 mm | - | - | - |
| 1777990681 | 26.67° C | 100% | 1018.1 hPa | 0 mm | - | - | - |
| 1777990548 | 26.67° C | 100% | 1018.1 hPa | 0 mm | - | - | - |
| 1777989948 | 26.11° C | 100% | 1018.1 hPa | 0 mm | - | - | - |
| 1777989648 | 26.11° C | 100% | 1018.1 hPa | 0 mm | - | - | - |
| 1777989348 | 26.11° C | 100% | 1018.1 hPa | 0 mm | - | - | - |
| 1777989048 | 25.56° C | 100% | 1017.9 hPa | 0 mm | - | - | - |
| 1777989008 | 26.11° C | 100% | 1017.9 hPa | 0 mm | - | - | - |
| 1777988748 | 26.11° C | 100% | 1017.9 hPa | 0 mm | - | - | - |
* Rain latest hour (hover to see other rain measurements)
** Current wind speed in m/s (hover to see current wind gust speed)